sat.trackr.live / text

‹ back to catalog

STARLINK-31739

NORAD 59766 · 2024-091P

PAYLOAD ACTIVE UNKNOWN

§ Identity

Operator
Country
US
Launch date
2024-05-14
Launch site
AFWTR
Launch vehicle
Mass (kg)
RCS (m²)

Purposes: comms

External: N2YO · Heavens-Above · Gunter

§ Orbital elements

Epoch: 2026-05-25T02:15:26.911008Z

Period
94.11 min
Inclination
53.1613°
Eccentricity
0.0001069
Mean motion
15.30205533 rev/d
Perigee alt
474.5 km
Apogee alt
475.9 km
Semi-major
6,853.3 km
B*
-3.0337e-5
RAAN
29.0635°
Arg perigee
93.7034°
Mean anomaly
266.4089°
Rev number
11,474

§ Raw data

STARLINK-317391 59766U 24091P   26145.09406147 -.00001258  00000+0 -30337-4 0  99952 59766  53.1613  29.0635 0001069  93.7034 266.4089 15.30205533114740

JSON: /api/v1/satellites/59766 · /tle

For live sub-satellite position, see the globe view (requires WebGL).

§ Visibility from observer

Set your observer location to see the next 7 days of passes ≥ 10°. The values pass through the URL so the page stays shareable.

No JS? Fill the form by hand. The geolocation button needs JavaScript.